Regional Weather Roundup
Issued by NWS

Home | Current Version | Previous Version | Graphics & Text | Print | Product List | Glossary On
Versions: 1 2 3 4 5 6 7 8 9 10 11 12 13 14 15 16 17 18 19 20 21 22 23 24 25 26 27 28 29 30 31 32 33 34 35 36 37 38 39 40 41 42 43 44 45 46 47 48 49 50
000
ASUS43 KMKX 131159
RWRWI

WISCONSIN REGIONAL WEATHER ROUNDUP
NATIONAL WEATHER SERVICE MILWAUKEE/SULLIVAN WI
600 AM CST SAT FEB 13 2016

NOTE: "FAIR" INDICATES FEW OR NO CLOUDS BELOW 12,000 FEET WITH NO
SIGNIFICANT WEATHER AND/OR OBSTRUCTIONS TO VISIBILITY.

WIZ001-002-006>008-014>016-023>028-131300-
NORTHWEST WISCONSIN

CITY           SKY/WX    TMP DP  RH WIND       PRES   REMARKS
SUPERIOR ARPT  CLOUDY   -11 -19  66 NW7       30.63S WCI -26
ASHLAND        CLOUDY   -10 -13  86 W3        30.57R
6HR MIN TEMP: -10; 6HR MAX TEMP:  -2; 6HR PCP: TRACE;

HAYWARD        CLOUDY   -17 -22  78 CALM      30.55S
6HR MIN TEMP: -19; 6HR MAX TEMP:  -6;

SIREN          PTCLDY   -16 -22  75 CALM      30.61S
CUMBERLAND     PTCLDY   -13 -22  64 NW5       30.55S WCI -25
RICE LAKE      PTCLDY   -12 -18  73 CALM      30.59F
CHETEK         PTCLDY   -11 -18  70 CALM      30.58S
LADYSMITH      CLOUDY   -10 -18  68 NW5       30.54F WCI -22
EAU CLAIRE     NOT AVBL
MENOMONIE      CLOUDY    -7 -18  58 W6        30.61S WCI -20
NEW RICHMOND   CLOUDY    -9 -17  70 CALM      30.61S
OSCEOLA        CLOUDY    -7 -16  65 CALM      30.65S
$$

WIZ003>005-009-010-017-018-131300-
NORTH CENTRAL WISCONSIN

CITY           SKY/WX    TMP DP  RH WIND       PRES   REMARKS
MANITOWISH WTR FLURRIES  -9 -14  79 W5        30.42R WCI -21
ARBOR VITAE    FLURRIES  -8 -13  78 NW5       30.41S WCI -19
WOODRUFF       FLURRIES  -8 -13  78 NW5       30.41S WCI -19
RHINELANDER    CLOUDY    -9 -15  75 W9        30.42R WCI -26
6HR MIN TEMP: -10; 6HR MAX TEMP:  -7;

EAGLE RIVER    CLOUDY    -8 -14  74 W9        30.39R WCI -25
LAND O LAKES   CLOUDY    -1  -6  80 NW6       30.38R WCI -13
PHILLIPS       CLOUDY   -15 -19  82 CALM      30.47S
TOMAHAWK       CLOUDY   -12 -16  79 W6        30.46S WCI -25
MEDFORD        CLOUDY   -12 -19  72 NW6       30.47S WCI -26
MERRILL        CLOUDY    -9 -15  74 NW5       30.49R WCI -20
$$

WIZ029-030-035-036-043>047-131300-
CENTRAL WISCONSIN

CITY           SKY/WX    TMP DP  RH WIND       PRES   REMARKS
WAUSAU         CLOUDY    -7 -14  71 NW6       30.49R WCI -20
6HR MIN TEMP:  -7; 6HR MAX TEMP:  -2;

MOSINEE        CLEAR     -8 -15  71 W9        30.51R WCI -25
MARSHFIELD     CLOUDY    -9 -20  58 NW12      30.50S WCI -28
6HR MIN TEMP:  -9; 6HR MAX TEMP:  -3;

STEVENS POINT  CLOUDY    -9 -17  67 W3        30.52R
WAUPACA        MOCLDY    -3 -14  58 W6        30.54R WCI -15
WAUTOMA        NOT AVBL
WISC RAPIDS    CLOUDY    -7 -18  59 NW7       30.56R WCI -21
6HR MIN TEMP:  -7; 6HR MAX TEMP:  -2;

CAMP DOUGLAS   PTCLDY    -9 -18  65 W8        30.57S WCI -25
6HR MIN TEMP:  -9; 6HR MAX TEMP:  -5;

$$

WIZ011>013-019>022-031-037>040-048>050-131300-
NORTHEAST WISCONSIN

CITY           SKY/WX    TMP DP  RH WIND       PRES   REMARKS
ANTIGO         CLOUDY   -11 -15  80 NW12      30.43R WCI -30
SHAWANO        PTCLDY    -3 -12  65 W6        30.51S WCI -15
OCONTO         PTCLDY    -5 -12  71 W6        30.50S WCI -18
STURGEON BAY   CLEAR     -4 -11  71 W13       30.47S WCI -23
6HR MIN TEMP:  -4; 6HR MAX TEMP:   0;

GREEN BAY      PTCLDY    -5 -13  68 W10       30.51R WCI -23
6HR MIN TEMP:  -5; 6HR MAX TEMP:  -1;

MANITOWOC      NOT AVBL
APPLETON       CLEAR     -6 -17  59 W12       30.49R WCI -24
CLINTONVILLE   CLEAR     -4 -13  65 NW9       30.52R WCI -20
OSHKOSH        CLEAR     -5 -16  59 W8        30.52S WCI -20
6HR MIN TEMP:  -5; 6HR MAX TEMP:  -1;

$$

WIZ032>034-041-042-053>061-131300-
SOUTHWEST WISCONSIN

CITY           SKY/WX    TMP DP  RH WIND       PRES   REMARKS
LA CROSSE      CLOUDY    -6 -17  59 N7        30.63S WCI -20
6HR MIN TEMP:  -7; 6HR MAX TEMP:   0;

SPARTA         CLOUDY   -12 -19  73 CALM      30.61R
VIROQUA        CLOUDY    -6 -17  60 N7        30.53S WCI -21
BOSCOBEL       CLOUDY    -7 -12  79 CALM      30.62S
6HR MIN TEMP:  -9; 6HR MAX TEMP:   1;

PRAIRIE DU CHI CLOUDY    -2 -13  57 NW3       30.62S
PLATTEVILLE    CLOUDY    -3 -12  67 W6        30.56S WCI -15
$$

WIZ056-057-062-063-064-067-068-131300-
SOUTH CENTRAL WISCONSIN

CITY           SKY/WX    TMP DP  RH WIND       PRES   REMARKS
REEDSBURG      PTCLDY    -5 -16  59 W3        30.57S
BARABOO/DELLS  PTCLDY    -4 -17  52 NW7       30.55S WCI -18
LONE ROCK      NOT AVBL
MINERAL POINT  CLOUDY     0 -15  50 NW8       30.53S WCI -15
MADISON        CLOUDY    -3 -15  56 NW6       30.56R WCI -15
6HR MIN TEMP:  -3; 6HR MAX TEMP:   2;

MIDDLETON      CLOUDY    -1 -13  56 NW7       30.56S WCI -14
WATERTOWN      CLEAR     -2 -12  60 NW12      30.54R WCI -19
MONROE         CLEAR      1 -13  51 NW9       30.53S WCI -14
JANESVILLE     CLEAR      1 -11  55 NW8       30.56R WCI -12
$$

WIZ051-052-058>065-066-070>072-131300-
SOUTHEAST WISCONSIN

CITY           SKY/WX    TMP DP  RH WIND       PRES   REMARKS
MILWAUKEE      PTCLDY     1 -13  51 NW10      30.53R WCI -15
6HR MIN TEMP:   1; 6HR MAX TEMP:   4;

WAUKESHA       NOT AVBL
MILWAUKEE/TIMM PTCLDY     1 -15  46 W10       30.53R WCI -14
RACINE         CLEAR      1 -13  51 NW9       30.54R WCI -14
6HR MIN TEMP:   1; 6HR MAX TEMP:   4;

BURLINGTON     CLEAR     -1 -13  56 NW10      30.53S WCI -18
KENOSHA        CLEAR      1 -11  57 NW10      30.53R WCI -15
6HR MIN TEMP:   1; 6HR MAX TEMP:   4;

FOND DU LAC    PTCLDY    -4 -15  59 NW14      30.52R WCI -24
6HR MIN TEMP:  -4; 6HR MAX TEMP:   0; 6HR PCP: TRACE;

SHEBOYGAN      CLEAR     -2 -13  59 NW13      30.50R WCI -20
6HR MIN TEMP:  -2; 6HR MAX TEMP:   1;

WEST BEND      CLEAR      0 -15  50 CALM      30.50R
JUNEAU         CLEAR     -4 -15  59 NW7       30.53S WCI -17
$$

LSZ147-162-131300-
LAKE SUPERIOR

STATION/POSITION TIME  TEMP    WIND        PRES    WAVE
                       AIR SEA DIR/SP/G            HT/PER
                 (UTC) (F)     (DEG/KT/KT) (MB)    (FT/S)
DEVILS ISLAND    1100    0     340/ 13/ 15 1037.2R
SAXON HARBOR     1140    0                 1034.2F
$$

LMZ867-665-643>646-131300-
LAKE MICHIGAN

STATION/POSITION TIME  TEMP    WIND        PRES    WAVE
                       AIR SEA DIR/SP/G            HT/PER
                 (UTC) (F)     (DEG/KT/KT) (MB)    (FT/S)
CHAMBERS ISLAND  1100   -1     280/  7/ 14 1031.2R
KEWAUNEE LAKESHO 1100   -2     300/  9/ 13 1031.2R
SHEBOYGAN LAKESH 1100    0     290/ 14/ 17 1034.8R
PORT WASHINGTON  1100    1     300/  8/ 14 1034.2S
MILWAUKEE LAKESH 1110    2     300/  9/ 15   N/A
KENOSHA   LAKESH 1100    3     300/  8/ 13 1033.5R
$$

TC  - TEMPERATURE IN CELSIUS
VSB - VISIBILITY IN STATUTE MILES
WCI - WIND CHILL INDEX
HX  - HEAT INDEX




USA.gov is the U.S. government's official web portal to all federal, state and local government web resources and services.